Погода в Борыне

Украина / Львовская область     49°04′39″N   22°59′43″E
темп.,
°C
ветер,
м/с
пор.,
м/с
влажн.,
%
обл.,
%
осадки,
мм/ч
давл.,
гПа
погр.,
м
4 марта, чт
чт423:000ююз339761 0.0 102574
02:00+1ююз399737 0.0 1024291
05:00+1ююз3109744 0.0 1021341
08:00+1ююз389660 0.0 1020299
11:00+4ююз378291 0.0 1018454
14:00+6юз487845 0.0 1015578
17:00+4юз278725 0.0 1014418
20:00+2юз269462 0.1 1014163
5 марта, пт
пт523:00+2ююз2399100 2.2 1013128
02:00+2ю2299100 4.8 101261
05:00+2ююз2299100 0.4 101240
08:00+2зсз1399100 1.4 1012192
11:00−1с3594100 3.7 1014486
14:00−1ссв4794100 6.1 1015602
17:00−2ссв5994100 2.8 1017646
20:00−5ссв51090100 3.5 1021726
6 марта, сб
сб623:00−7ссв3108976 0.0 1024401
02:00−9с249338 0.0 1026100
05:00−9ссз12880 0.0 102729
08:00−7ссз25927 0.0 1030264
11:00−3ссз367156 0.1 10301268
14:00−3ссз466678 0.4 10311379
17:00−4ссз3573100 0.1 10311061
20:00−8сз118982 0.2 103221
7 марта, вс
вс723:00−8ююз11890 0.0 103221
02:00−8ююз22880 0.0 103127
05:00−8ююз38860 0.0 1029265
08:00−6юз312820 0.0 1028619
11:00−2юз510670 0.0 1026765
14:00−1юз510650 0.0 1023856
17:00−1юз5106915 0.0 1021801
20:00−4ююз39837 0.0 1021298
8 марта, пн
пн823:00−5ююз38840 0.0 1021247
02:00−6ююз239112 0.0 102086
05:00−6ююз229417 0.0 101829
08:00−5ююз239149 0.0 1018105
11:00−1юз347069 0.0 1017676
14:00+1зюз346584 0.0 10171209
17:00−1зсз2478100 0.2 1016684
20:00−4зюз119597 0.3 101921